This demonstration page uses our WeatherBlox Daily Observations layout. Learn more.

Left ArrowRight Arrow

39.51506, -84.39828

Hourly Observations for June 24, 2016

Temp ( °F °C ) Dew Point ( °F °C ) Humidity (%) Winds ( mph kmh ) Pressure ( in mb ) Visibility ( mi km ) Precip ( " mm )
12:15 am 00:15 Clear 74 23.6 67 19.7 79 79 NE 3 6 29.91 1013 10 16 N/A
12:35 am 00:35 Clear 74 23.6 67 19.7 79 79 N N/A 29.91 1013 10 16 N/A
12:55 am 00:55 Clear 73 23 67 19.2 79 79 N N/A 29.91 1013 10 16 N/A
1:15 am 01:15 Clear 69 20.8 64 17.5 82 82 N N/A 29.91 1013 7 11 N/A
1:35 am 01:35 Clear 69 20.8 64 17.5 82 82 N N/A 29.91 1013 7 11 N/A
1:55 am 01:55 Hazy 69 20.8 64 17.7 83 83 N N/A 29.91 1013 5 8 N/A
2:15 am 02:15 Hazy 69 20.8 64 17.7 83 83 N N/A 29.94 1014 5 8 N/A
2:35 am 02:35 Hazy 69 20.8 64 17.8 83 83 N N/A 29.94 1014 5 8 N/A
2:55 am 02:55 Hazy 69 20.8 64 17.8 83 83 N 3 6 29.91 1013 5 8 N/A
3:15 am 03:15 Clear 69 20.8 64 17.8 83 83 N 5 7 29.91 1013 7 11 N/A
3:35 am 03:35 Hazy 69 20.8 64 17.8 83 83 N 5 7 29.91 1013 5 8 N/A
3:55 am 03:55 Clear 69 20.8 64 17.7 83 83 N 6 9 29.91 1013 7 11 N/A
4:15 am 04:15 Clear 69 20.8 64 17.6 82 82 N 6 9 29.91 1013 7 11 N/A
4:35 am 04:35 Hazy 69 20.8 64 17.5 82 82 N 3 6 29.91 1013 5 8 N/A
4:55 am 04:55 Hazy 69 20.8 64 17.5 82 82 N N/A 29.91 1013 5 8 N/A
5:15 am 05:15 Hazy 69 20.8 64 17.5 82 82 N 3 6 29.94 1014 5 8 N/A
5:35 am 05:35 Hazy 69 20.8 64 17.7 83 83 N N/A 29.94 1014 5 8 N/A
5:55 am 05:55 Hazy 69 20.8 64 17.7 83 83 N 5 7 29.94 1014 5 8 N/A
6:15 am 06:15 Hazy 69 20.8 64 17.7 83 83 N 3 6 29.94 1014 4 6 N/A
6:35 am 06:35 Hazy 69 20.8 64 17.7 83 83 N N/A 29.94 1014 4 6 N/A
6:55 am 06:55 Hazy 69 20.8 64 17.7 83 83 N N/A 29.94 1014 5 8 N/A
7:15 am 07:15 Hazy 69 20.8 64 17.6 82 82 NE 5 7 29.94 1014 5 8 N/A
7:35 am 07:35 Partly Cloudy 69 20.8 63 17.3 80 80 N N/A 29.97 1015 7 11 N/A
7:55 am 07:55 Cloudy 69 20.8 63 17.2 80 80 N N/A 29.97 1015 7 11 N/A
8:15 am 08:15 Cloudy 71 21.6 64 17.9 80 80 N N/A 30.00 1016 7 11 N/A
8:35 am 08:35 Cloudy 71 21.6 64 17.8 79 79 N N/A 30.00 1016 7 11 N/A
8:55 am 08:55 Cloudy 72 22.1 65 18.2 79 79 NW 5 7 30.00 1016 7 11 N/A
9:15 am 09:15 Cloudy 74 23.6 67 19.6 78 78 N N/A 30.00 1016 7 11 N/A
9:35 am 09:35 Cloudy 74 23.6 66 19.1 76 76 NE 3 6 30.00 1016 10 16 N/A
9:55 am 09:55 Cloudy 74 23.6 65 18.6 74 74 N N/A 30.03 1017 10 16 N/A
10:15 am 10:15 Cloudy 74 23.6 65 18.4 73 73 NNE 6 9 30.03 1017 10 16 N/A
10:35 am 10:35 Cloudy 74 23.6 65 18.2 72 72 NNE 7 11 30.03 1017 10 16 N/A
10:55 am 10:55 Cloudy 77 25.1 65 18.5 67 67 ENE 6 9 30.03 1017 10 16 N/A
11:15 am 11:15 Cloudy 77 25.1 65 18.1 65 65 N N/A 30.03 1017 10 16 N/A
11:35 am 11:35 Partly Cloudy 77 25.1 64 17.6 63 63 N N/A 30.03 1017 10 16 N/A
11:55 am 11:55 Mostly Cloudy 80 26.4 65 18.4 62 62 NNE 3 6 30.03 1017 10 16 N/A
12:15 pm 12:15 Mostly Cloudy 80 26.5 65 18.5 62 62 N 5 7 30.03 1017 10 16 N/A
12:35 pm 12:35 Mostly Cloudy 77 25.2 63 17.3 62 62 N N/A 30.03 1017 10 16 N/A
12:55 pm 12:55 Mostly Cloudy 80 26.5 64 17.5 58 58 N N/A 30.03 1017 10 16 N/A
1:15 pm 13:15 Partly Cloudy 80 26.5 63 17 56 56 N 5 7 30.03 1017 10 16 N/A
1:35 pm 13:35 Mostly Cloudy 81 27.2 63 17.2 54 54 N 7 11 30.03 1017 10 16 N/A
1:55 pm 13:55 Partly Cloudy 82 27.6 62 16.9 52 52 N N/A 30.03 1017 10 16 N/A
2:15 pm 14:15 Partly Cloudy 82 28 62 16.8 51 51 NNW 5 7 30.03 1017 10 16 N/A
2:35 pm 14:35 Partly Cloudy 83 28.1 61 16.3 49 49 N 6 9 30.03 1017 10 16 N/A
2:55 pm 14:55 Partly Cloudy 83 28.1 60 15.7 47 47 N 7 11 30.03 1017 10 16 N/A
3:15 pm 15:15 Sunny 83 28.6 60 15.6 45 45 NNW 5 7 30.00 1016 10 16 N/A
3:35 pm 15:35 Sunny 83 28.4 59 15 44 44 N 6 9 30.03 1017 10 16 N/A
3:55 pm 15:55 Partly Cloudy 83 28.6 60 15.5 45 45 NNW 6 9 30.00 1016 10 16 N/A
4:15 pm 16:15 Partly Cloudy 85 29.3 60 15.5 43 43 N 7 11 30.00 1016 10 16 N/A
4:35 pm 16:35 Partly Cloudy 83 28.4 59 14.8 43 43 ENE 5 7 30.03 1017 10 16 N/A
4:55 pm 16:55 Partly Cloudy 82 28 57 13.7 41 41 N 3 6 30.03 1017 10 16 N/A
5:15 pm 17:15 Sunny 85 29.3 57 13.9 39 39 N 6 9 30.00 1016 10 16 N/A
5:35 pm 17:35 Sunny 85 29.6 58 14.3 39 39 NNW 8 13 30.00 1016 10 16 N/A
5:55 pm 17:55 Sunny 85 29.2 56 13.3 38 38 NNE 7 11 30.00 1016 10 16 N/A
6:15 pm 18:15 Sunny 85 29.2 56 13.3 38 38 NNW 7 11 30.00 1016 10 16 N/A
6:35 pm 18:35 Sunny 84 28.7 55 12.5 37 37 NNW 7 11 30.00 1016 10 16 N/A
6:55 pm 18:55 Sunny 83 28.6 54 12.1 36 36 N 6 9 30.00 1016 10 16 N/A
7:15 pm 19:15 Sunny 83 28.6 54 12 36 36 N 7 11 30.00 1016 10 16 N/A
7:35 pm 19:35 Sunny 83 28.1 53 11.5 36 36 N 6 9 30.03 1017 10 16 N/A
7:55 pm 19:55 Sunny 82 28 54 12.2 38 38 N 5 7 30.03 1017 10 16 N/A
8:15 pm 20:15 Sunny 81 27.2 58 14.5 46 46 N N/A 30.03 1017 10 16 N/A
8:35 pm 20:35 Sunny 80 26.5 58 14.7 48 48 N N/A 30.03 1017 10 16 N/A
8:55 pm 20:55 Sunny 77 25.1 59 14.9 53 53 N N/A 30.03 1017 10 16 N/A
9:15 pm 21:15 Clear 74 23.6 60 15.4 60 60 N 3 6 30.03 1017 10 16 N/A
9:35 pm 21:35 Clear 74 23.6 61 16 63 63 N 3 6 30.03 1017 10 16 N/A
9:55 pm 21:55 Clear 74 23.6 62 16.5 65 65 N 5 7 30.03 1017 10 16 N/A
10:15 pm 22:15 Clear 74 23.6 62 16.5 65 65 N N/A 30.06 1018 10 16 N/A
10:35 pm 22:35 Clear 71 21.6 60 15.8 70 70 N N/A 30.06 1018 10 16 N/A
10:55 pm 22:55 Clear 69 20.8 60 15.8 73 73 N 3 6 30.06 1018 10 16 N/A
11:15 pm 23:15 Clear 69 20.8 62 16.5 77 77 N 3 6 30.06 1018 10 16 N/A
11:35 pm 23:35 Clear 69 20.8 63 17 79 79 N N/A 30.06 1018 10 16 N/A
11:55 pm 23:55 Clear 69 20.8 62 16.5 77 77 N N/A 30.06 1018 10 16 N/A

Powered by AerisWeather